[[{"header":{"parameterUnit":"m.s-1","parameterCategory":1,"la1":30.2992,"la2":30.254,"lo1":-89.0895,"lo2":-89.0443,"dy":0.0025,"dx":0.0025,"nx":19,"ny":19,"refTime":"2026-04-05T03:00:00:Z","depth":0,"parameterNumber":2,"parameterNumberName":"U-component_of_WINDS"},"data":[0,0,0,1.6803,1.6804,1.6877,1.6878,1.6972,1.6973,0,0,0,0,0,0,0,0,0,0,0,1.678,1.678,1.6802,1.6804,1.6877,1.6878,1.6972,1.6973,0,0,0,0,0,0,0,0,0,0,0,1.6779,1.678,1.6781,1.6805,1.6877,1.6878,1.6972,1.6917,0,0,0,0,0,0,0,0,0,0,1.6845,1.6822,1.678,1.6781,1.6805,1.6877,1.6878,1.6914,1.692,1.6939,0,1.6953,0,1.6965,1.6979,1.6979,0,0,0,1.6805,1.6817,1.6838,1.6781,1.6806,1.6877,1.6845,1.6917,1.6924,1.6947,1.6955,1.6958,1.6966,1.698,1.698,1.7083,1.7083,0,0,1.6801,1.6792,1.6833,1.6843,1.683,1.6842,1.6847,1.6921,1.693,1.6955,1.6961,1.6968,1.698,1.6981,1.7083,1.7083,0,0,0,1.6789,1.6789,1.6808,1.6839,1.6852,1.6844,1.685,1.6927,1.6934,1.6962,1.6969,1.6981,1.6982,1.7082,1.7083,1.7096,0,0,0,1.6787,1.6782,1.6807,1.6802,1.685,1.689,1.6853,1.6929,1.6937,1.6968,1.6981,1.6983,1.7082,1.7083,1.7094,1.7103,0,0,0,1.6775,1.6781,1.6791,1.6801,1.6832,1.6889,1.69,1.6931,1.6942,1.6979,1.6983,1.7081,1.7082,1.7093,1.7101,1.7129,0,0,0,1.676,1.6799,1.6791,1.6838,1.6831,1.6896,1.69,1.6948,1.6982,1.6981,1.7082,1.7083,1.7093,1.71,1.7128,1.7151,1.716,0,0,1.6805,1.6804,1.6833,1.6827,1.6891,1.6885,1.6952,1.6991,1.7003,1.7056,1.7059,1.7095,1.7101,1.7129,1.721,1.7217,0,0,0,1.6844,1.6865,1.6884,1.6916,1.6947,1.6976,1.7007,1.7022,1.7068,1.7028,1.7112,1.7116,1.7133,1.7145,1.7151,1.7167,1.7088,1.7087,1.7087,1.6892,1.6907,1.6957,1.6981,1.7012,1.7045,1.7073,1.7099,1.7103,1.7124,1.7139,1.7187,1.72,1.7205,1.7221,1.7152,1.7152,1.7152,1.7152,1.696,1.6992,1.7,1.705,1.7066,1.7109,1.7144,1.7147,1.7191,1.7175,1.7191,1.7174,1.7212,1.7227,1.7154,1.7153,1.7153,1.7153,1.7153,1.6993,1.7012,1.703,1.7081,1.7118,1.7142,1.7185,1.7198,1.7211,1.7226,1.7246,1.7246,1.7248,1.7235,1.7235,1.7235,1.7235,1.7235,1.7235,1.7021,1.7042,1.7076,1.7116,1.714,1.7174,1.721,1.7235,1.7266,1.7272,1.7272,1.7277,1.7212,1.7197,1.7238,1.7237,1.7237,1.7237,1.7237,1.7084,1.7073,1.7125,1.715,1.72,1.7238,1.7255,1.7305,1.7328,1.7349,1.7351,1.7301,1.7302,1.7297,1.7285,1.7346,1.7346,1.7346,1.7346,1.7113,1.7115,1.7174,1.7213,1.7253,1.7275,1.7337,1.7367,1.7396,1.7412,1.7406,1.7389,1.7384,1.7388,1.7382,1.737,1.7452,1.7452,1.7452,1.7154,1.7161,1.721,1.7239,1.728,1.7316,1.7375,1.7422,1.7453,1.7457,1.7426,1.7421,1.7395,1.7386,1.7388,1.7377,1.7356,0,0]},{"header":{"parameterUnit":"m.s-1","parameterCategory":1,"la1":30.2992,"la2":30.254,"lo1":-89.0895,"lo2":-89.0443,"dy":0.0025,"dx":0.0025,"nx":19,"ny":19,"refTime":"2026-04-05T03:00:00:Z","depth":0,"parameterNumber":3,"parameterNumberName":"V-component_of_WINDS"},"data":[0,0,0,-4.4781,-4.4774,-4.4418,-4.4417,-4.398,-4.3976,0,0,0,0,0,0,0,0,0,0,0,-4.4914,-4.4912,-4.4782,-4.4774,-4.4418,-4.4416,-4.398,-4.3976,0,0,0,0,0,0,0,0,0,0,0,-4.4914,-4.4912,-4.491,-4.4773,-4.4419,-4.4416,-4.3981,-4.4239,0,0,0,0,0,0,0,0,0,0,-4.458,-4.4733,-4.4913,-4.491,-4.4771,-4.4419,-4.4416,-4.4251,-4.4223,-4.4154,0,-4.4114,0,-4.404,-4.395,-4.3948,0,0,0,-4.4749,-4.4757,-4.4638,-4.491,-4.4768,-4.442,-4.4572,-4.4235,-4.4203,-4.4117,-4.4107,-4.409,-4.4032,-4.3947,-4.3945,-4.3662,-4.3662,0,0,-4.4769,-4.486,-4.4661,-4.4619,-4.4693,-4.4583,-4.4561,-4.4215,-4.4205,-4.4105,-4.4079,-4.4025,-4.3944,-4.3941,-4.3662,-4.3662,0,0,0,-4.4842,-4.4875,-4.4764,-4.4638,-4.4574,-4.4574,-4.4548,-4.422,-4.4177,-4.4074,-4.402,-4.3942,-4.3937,-4.3662,-4.3662,-4.3748,0,0,0,-4.4852,-4.4918,-4.4774,-4.4826,-4.4582,-4.4396,-4.4561,-4.4201,-4.4159,-4.4022,-4.3942,-4.3933,-4.3662,-4.3662,-4.3746,-4.3771,0,0,0,-4.4927,-4.4926,-4.4886,-4.4832,-4.4684,-4.4399,-4.4336,-4.419,-4.4127,-4.3948,-4.3932,-4.3662,-4.3662,-4.3745,-4.3768,-4.3724,0,0,0,-4.5029,-4.4961,-4.4889,-4.4789,-4.4688,-4.4461,-4.4337,-4.4159,-4.4016,-4.394,-4.3662,-4.3662,-4.3744,-4.3766,-4.3723,-4.3704,-4.3707,0,0,-4.4994,-4.496,-4.4894,-4.4819,-4.4632,-4.4507,-4.4323,-4.4098,-4.3988,-4.3773,-4.3764,-4.3747,-4.3768,-4.3724,-4.3687,-4.369,0,0,0,-4.4913,-4.4868,-4.4797,-4.4673,-4.4508,-4.4364,-4.416,-4.4074,-4.3889,-4.3903,-4.3716,-4.3726,-4.3695,-4.3681,-4.3684,-4.3649,-4.3661,-4.3661,-4.3661,-4.4992,-4.4868,-4.4748,-4.458,-4.4458,-4.4249,-4.4134,-4.3981,-4.3882,-4.3839,-4.3775,-4.377,-4.3757,-4.3758,-4.3724,-4.3755,-4.3755,-4.3755,-4.3756,-4.4927,-4.4841,-4.4718,-4.456,-4.4421,-4.4279,-4.407,-4.4004,-4.3843,-4.3808,-4.3774,-4.3747,-4.3766,-4.3728,-4.3761,-4.376,-4.3759,-4.3759,-4.3758,-4.4964,-4.4901,-4.4808,-4.4614,-4.4474,-4.4298,-4.4153,-4.4028,-4.3907,-4.3875,-4.379,-4.3788,-4.3768,-4.3844,-4.3844,-4.3844,-4.3844,-4.3844,-4.3844,-4.504,-4.4932,-4.4833,-4.4653,-4.4555,-4.4409,-4.4194,-4.4088,-4.3937,-4.3856,-4.3854,-4.3756,-4.3795,-4.3806,-4.3843,-4.3843,-4.3843,-4.3843,-4.3843,-4.502,-4.5006,-4.4854,-4.4757,-4.453,-4.4397,-4.4241,-4.4036,-4.3928,-4.3858,-4.3765,-4.3816,-4.3767,-4.3764,-4.3773,-4.3798,-4.3798,-4.3798,-4.3798,-4.5051,-4.5018,-4.4834,-4.4686,-4.4525,-4.4369,-4.4184,-4.4012,-4.3829,-4.3751,-4.3729,-4.3729,-4.3732,-4.3681,-4.368,-4.3685,-4.3688,-4.3688,-4.3688,-4.5029,-4.4975,-4.4852,-4.4688,-4.45,-4.4337,-4.4158,-4.3978,-4.3765,-4.3681,-4.3686,-4.3691,-4.369,-4.3697,-4.3615,-4.3616,-4.3623,0,0]}]]